Weather History for Oxford, MS

Change the Weather History Date:

Thursday, February 21, 2013

  Actual Average Record
Temperature  
Mean Temperature 40 °F -  
Max Temperature 48 °F 60 °F 80 °F (1986)
Min Temperature 33 °F 33 °F 18 °F (1959)
Degree Days  
Heating Degree Days 24    
Moisture  
Dew Point 32 °F    
Average Humidity 73    
Maximum Humidity 100    
Minimum Humidity 37    
Precipitation  
Precipitation 1.01 in - - ()
Sea Level Pressure  
Sea Level Pressure 29.96 in    
Wind  
Wind Speed 6 mph (ESE)    
Max Wind Speed 12 mph    
Max Gust Speed 20 mph    
Visibility 8 miles    
Events Rain , Thunderstorm    
Averages and records for this station are not official NWS values.
T = Trace of Precipitation, MM = Missing Value Source: NWS Daily Summary

Daily Weather History Graph

Daily Weather History Graph

Search for Another Location

Airport:

Trip Planner

Search our weather history database for the weather conditions in past years. The results will help you decide how hot, cold, wet, or windy it might be!

Date:

Astronomy

Feb. 21, 2013 Rise Set
Actual Time 6:36 AM CST 5:47 PM CST
Civil Twilight 6:10 AM CST 6:12 PM CST
Nautical Twilight 5:41 AM CST 6:42 PM CST
Astronomical Twilight 5:12 AM CST 7:11 PM CST
Moon 2:08 PM CST (2/21) 3:34 AM CST (2/21)
Length of Visible Light 12h 01m
Length of Day
11h 11m
Waxing Gibbous, 84% of the Moon is Illuminated
Feb 21
Waxing Gibbous
Feb 25
Full
Mar 4
Last Quarter
Mar 11
New
Mar 19
First Quarter

Hourly Weather History & Observations

Time (CST) Temp. Windchill Dew Point Humidity Pressure Visibility Wind Dir Wind Speed Gust Speed Precip Events Conditions
12:15 AM 33.8 °F 29.6 °F 23.0 °F 65% 30.19 in 10.0 mi East 4.6 mph - N/A   Overcast
12:35 AM 35.6 °F 29.2 °F 21.2 °F 56% 30.17 in 10.0 mi East 8.1 mph - N/A   Overcast
12:55 AM 35.6 °F 29.9 °F 21.2 °F 56% 30.17 in 10.0 mi ENE 6.9 mph - N/A   Overcast
1:15 AM 35.6 °F 29.9 °F 19.4 °F 52% 30.17 in 10.0 mi East 6.9 mph - N/A   Mostly Cloudy
1:35 AM 35.6 °F 29.9 °F 19.4 °F 52% 30.17 in 10.0 mi East 6.9 mph - N/A   Mostly Cloudy
1:55 AM 35.6 °F 29.9 °F 21.2 °F 56% 30.16 in 10.0 mi ENE 6.9 mph - N/A   Mostly Cloudy
2:15 AM 35.6 °F 29.9 °F 21.2 °F 56% 30.16 in 9.0 mi East 6.9 mph - N/A Rain Light Rain
2:35 AM 33.8 °F 27.0 °F 23.0 °F 65% 30.14 in 10.0 mi East 8.1 mph - N/A Rain Light Rain
2:55 AM 33.8 °F 27.0 °F 21.2 °F 60% 30.15 in 10.0 mi NE 8.1 mph - N/A   Overcast
3:15 AM 33.8 °F 27.0 °F 21.2 °F 60% 30.15 in 10.0 mi NE 8.1 mph - N/A   Overcast
3:35 AM 33.8 °F 25.8 °F 21.2 °F 60% 30.13 in 10.0 mi ENE 10.4 mph - N/A   Overcast
3:55 AM 33.8 °F 27.0 °F 21.2 °F 60% 30.12 in 10.0 mi East 8.1 mph - N/A   Overcast
4:15 AM 33.8 °F 27.0 °F 23.0 °F 65% 30.12 in 9.0 mi East 8.1 mph - N/A Rain Light Rain
4:35 AM 33.8 °F 26.4 °F 23.0 °F 65% 30.12 in 10.0 mi East 9.2 mph - N/A   Overcast
4:55 AM 33.8 °F 27.0 °F 23.0 °F 65% 30.11 in 10.0 mi East 8.1 mph - N/A   Overcast
5:15 AM 33.8 °F 26.4 °F 23.0 °F 65% 30.11 in 10.0 mi East 9.2 mph - N/A   Overcast
5:35 AM 33.8 °F 27.7 °F 23.0 °F 65% 30.11 in 10.0 mi East 6.9 mph - N/A   Overcast
5:55 AM 35.6 °F 28.6 °F 23.0 °F 60% 30.11 in 10.0 mi East 9.2 mph - N/A   Overcast
6:15 AM 35.6 °F 29.9 °F 23.0 °F 60% 30.11 in 10.0 mi East 6.9 mph - N/A   Overcast
6:35 AM 35.6 °F 29.2 °F 23.0 °F 60% 30.11 in 10.0 mi East 8.1 mph - N/A   Overcast
6:55 AM 35.6 °F 31.7 °F 23.0 °F 60% 30.11 in 8.0 mi East 4.6 mph - N/A   Overcast
7:15 AM 35.6 °F 30.7 °F 23.0 °F 60% 30.11 in 9.0 mi East 5.8 mph - N/A   Overcast
7:35 AM 35.6 °F 31.7 °F 23.0 °F 60% 30.11 in 7.0 mi ESE 4.6 mph - N/A Rain Light Rain
7:55 AM 35.6 °F 29.9 °F 23.0 °F 60% 30.09 in 9.0 mi ESE 6.9 mph - N/A   Overcast
8:15 AM 37.4 °F 31.4 °F 23.0 °F 56% 30.08 in 9.0 mi ESE 8.1 mph - N/A   Overcast
8:35 AM 37.4 °F 33.8 °F 21.2 °F 52% 30.08 in 9.0 mi ESE 4.6 mph - N/A   Overcast
8:55 AM 39.2 °F 34.2 °F 23.0 °F 52% 30.07 in 9.0 mi ESE 6.9 mph - N/A   Overcast
9:15 AM 39.2 °F 35.9 °F 23.0 °F 52% 30.04 in 8.0 mi ESE 4.6 mph - N/A   Mostly Cloudy
9:35 AM 39.2 °F 35.0 °F 23.0 °F 52% 29.99 in 9.0 mi ESE 5.8 mph 16.1 mph N/A   Mostly Cloudy
9:55 AM 42.8 °F 38.0 °F 24.8 °F 49% 29.96 in 9.0 mi ESE 8.1 mph 17.3 mph N/A   Partly Cloudy
10:15 AM 46.4 °F 43.5 °F 24.8 °F 43% 29.97 in 9.0 mi SE 5.8 mph - N/A   Partly Cloudy
10:35 AM 46.4 °F 41.9 °F 23.0 °F 40% 29.95 in 9.0 mi SE 9.2 mph - N/A   Mostly Cloudy
11:15 AM 48.2 °F - 24.8 °F 40% 29.90 in 9.0 mi SE 5.8 mph - N/A   Partly Cloudy
11:35 AM 48.2 °F - 23.0 °F 37% 29.90 in 8.0 mi SE 10.4 mph - N/A   Mostly Cloudy
11:55 AM 46.4 °F 41.5 °F 26.6 °F 46% 29.85 in 8.0 mi ESE 10.4 mph 19.6 mph N/A   Overcast
12:15 PM 48.2 °F - 24.8 °F 40% 29.83 in 9.0 mi SE 11.5 mph 19.6 mph N/A   Overcast
12:35 PM 48.2 °F - 24.8 °F 40% 29.85 in 9.0 mi Calm Calm - N/A   Overcast
12:55 PM 48.2 °F - 28.4 °F 46% 29.93 in 6.0 mi WSW 10.4 mph - N/A Rain , Thunderstorm Light Rain
1:15 PM 42.8 °F 41.1 °F 37.4 °F 81% 29.87 in 2.5 mi ESE 3.5 mph - 0.03 in Rain , Thunderstorm Light Rain
1:35 PM 41.0 °F 36.4 °F 37.4 °F 87% 29.83 in 2.0 mi ESE 6.9 mph - 0.07 in Rain , Thunderstorm Thunderstorms and Rain
1:55 PM 41.0 °F 38.0 °F 37.4 °F 87% 29.82 in 0.8 mi ESE 4.6 mph - 0.24 in Rain , Thunderstorm Heavy Rain
2:15 PM 41.0 °F 36.4 °F 37.4 °F 87% 29.84 in 0.8 mi ESE 6.9 mph 19.6 mph 0.26 in Rain , Thunderstorm Heavy Thunderstorms and Rain
2:35 PM 39.2 °F - 37.4 °F 93% 29.86 in 1.8 mi Calm Calm - 0.45 in Rain , Thunderstorm Light Rain
2:55 PM 39.2 °F 35.9 °F 39.2 °F 100% 29.84 in 1.5 mi SE 4.6 mph - 0.53 in Rain Light Rain
3:35 PM 41.0 °F 37.1 °F 39.2 °F 93% 29.82 in 7.0 mi SE 5.8 mph - N/A Rain Light Rain
3:55 PM 41.0 °F 38.0 °F 39.2 °F 93% 29.81 in 8.0 mi SE 4.6 mph - 0.03 in   Overcast
4:15 PM 41.0 °F 37.1 °F 39.2 °F 93% 29.81 in 2.0 mi SSE 5.8 mph - 0.07 in Rain , Thunderstorm Light Rain
4:35 PM 41.0 °F 38.0 °F 39.2 °F 93% 29.81 in 5.0 mi SSE 4.6 mph - 0.07 in Rain Light Rain
4:55 PM 41.0 °F 38.0 °F 39.2 °F 93% 29.81 in 3.0 mi SE 4.6 mph - 0.10 in Rain Light Rain
5:15 PM 41.0 °F 38.0 °F 39.2 °F 93% 29.80 in 1.5 mi SE 4.6 mph - 0.04 in Rain Light Rain
5:55 PM 41.0 °F 36.4 °F 41.0 °F 100% 29.79 in 8.0 mi SE 6.9 mph - 0.11 in   Overcast
6:15 PM 41.0 °F 37.1 °F 41.0 °F 100% 29.80 in 9.0 mi SE 5.8 mph - N/A   Overcast
6:35 PM 42.8 °F 38.6 °F 41.0 °F 93% 29.80 in 9.0 mi SE 6.9 mph - N/A   Overcast
6:55 PM 42.8 °F 40.1 °F 41.0 °F 93% 29.80 in 8.0 mi SSW 4.6 mph - N/A   Overcast
7:15 PM 44.6 °F 43.1 °F 42.8 °F 93% 29.79 in 8.0 mi ESE 3.5 mph - N/A   Overcast
7:35 PM 44.6 °F - 44.6 °F 100% 29.80 in 8.0 mi Calm Calm - N/A   Overcast
7:55 PM 46.4 °F - 44.6 °F 93% 29.80 in 8.0 mi Calm Calm - N/A   Overcast
8:15 PM 46.4 °F 45.2 °F 44.6 °F 93% 29.80 in 7.0 mi SE 3.5 mph - N/A   Overcast
8:35 PM 46.4 °F 45.2 °F 46.4 °F 100% 29.80 in 7.0 mi South 3.5 mph - N/A   Overcast
8:55 PM 46.4 °F 44.3 °F 46.4 °F 100% 29.82 in 7.0 mi South 4.6 mph - N/A   Overcast
9:15 PM 48.2 °F - 46.4 °F 93% 29.83 in 6.0 mi Calm Calm - N/A   Overcast
9:35 PM 48.2 °F - 48.2 °F 100% 29.84 in 5.0 mi SSW 3.5 mph - N/A   Overcast
9:55 PM 48.2 °F - 48.2 °F 100% 29.85 in 4.0 mi WNW 4.6 mph - N/A   Overcast
10:15 PM 48.2 °F - 48.2 °F 100% 29.87 in 4.0 mi WSW 3.5 mph - N/A   Overcast
10:35 PM 48.2 °F - 46.4 °F 93% 29.88 in 4.0 mi WSW 4.6 mph - N/A   Overcast
10:55 PM 48.2 °F - 48.2 °F 100% 29.89 in 3.0 mi West 4.6 mph - N/A   Overcast
11:15 PM 48.2 °F - 46.4 °F 93% 29.90 in 7.0 mi WNW 10.4 mph - N/A   Overcast
11:35 PM 46.4 °F 42.9 °F 46.4 °F 100% 29.91 in 8.0 mi West 6.9 mph - N/A   Overcast
11:55 PM 46.4 °F 43.5 °F 46.4 °F 100% 29.91 in 8.0 mi West 5.8 mph - N/A   Overcast